Location: Napoli
(40.8639°N, 14.2562°E)
Time: 15:39:00
(UTC+02:00)

ISS - Visible Passes

Search period start: 21 May 2025 00:00
Search period end: 31 May 2025 00:00
Orbit: 416 x 419 km, 51.6° (Epoch: 21 May)

Date Brightness Start Highest point End Pass type
(mag) Time Alt. Az. Time Alt. Az. Time Alt. Az.
21 May -2.2 22:19:19 10° NW 22:22:20 30° NNE 22:23:25 24° ENE visible
21 May -0.7 23:56:01 10° WNW 23:56:19 12° WNW 23:56:19 12° WNW visible
22 May -1.7 21:31:25 10° NNW 21:34:07 22° NNE 21:36:50 10° ENE visible
22 May -2.3 23:07:50 10° WNW 23:09:57 35° WNW 23:09:57 35° WNW visible
23 May -3.7 22:19:45 10° NW 22:23:06 70° NE 22:23:36 57° E visible
24 May -2.9 21:31:44 10° NW 21:34:58 43° NNE 21:37:16 17° E visible
24 May -1.4 23:08:52 10° W 23:10:10 17° W 23:10:10 17° W visible
25 May -3.0 22:20:25 10° WNW 22:23:34 39° SW 22:23:52 38° SSW visible
26 May -3.7 21:32:11 10° WNW 21:35:31 71° SW 21:37:36 21° SE visible
27 May -1.4 22:21:58 10° W 22:23:46 14° SW 22:24:18 13° SW visible
28 May -2.0 21:33:03 10° WNW 21:35:47 24° SW 21:38:07 12° S visible
